
Distance (Route):
Temperature : 0°C
Humidity : 0%
Pressure : 0hPa| Receiver | Date | Latitude | Longitude | Direction | Speed | Altitude | Climb | Temperature | Humidity | Pressure | Voltage | Killtimer | Uptime | BKT | XDATA |
|---|---|---|---|---|---|---|---|---|---|---|---|---|---|---|---|
| IW2NTF | 2026-09-05 00:28:26 | 41.87360 | 9.08218 | 91° | 13km/h | 21251m | 5.3m/s | 0°C | 0% | 0hPa | 0V | 00:00:00 | 00:00:00 | 00:00:00 | |
| RDZ2B | 2026-09-05 00:28:22 | 41.87355 | 9.08227 | 141° | 22km/h | 21260m | 3.4m/s | 0°C | 0% | 0hPa | 0V | 00:00:00 | 00:00:00 | 00:00:00 | |
| IW2NTF | 2026-09-05 00:28:15 | 41.87364 | 9.08201 | 48° | 11km/h | 21204m | 4.3m/s | 0°C | 0% | 0hPa | 0V | 00:00:00 | 00:00:00 | 00:00:00 | |
| RDZBGO | 2026-09-05 00:28:09 | 41.87364 | 9.08201 | 50° | 11km/h | 21204m | 4.3m/s | 0°C | 0% | 0hPa | 0V | 00:00:00 | 00:00:00 | 00:00:00 | |
| IW2NTF | 2026-09-05 00:28:01 | 41.87360 | 9.08173 | 327° | 7km/h | 21139m | 3.5m/s | 0°C | 0% | 0hPa | 0V | 00:00:00 | 00:00:00 | 00:00:00 | |
| RDZ2B | 2026-09-05 00:28:01 | 41.87367 | 9.08185 | 72° | 24km/h | 21165m | 5.2m/s | 0°C | 0% | 0hPa | 0V | 00:00:00 | 00:00:00 | 00:00:00 | |
| RDZBGO | 2026-09-05 00:27:48 | 41.87350 | 9.08145 | 345° | 18km/h | 21107m | 4.2m/s | 0°C | 0% | 0hPa | 0V | 00:00:00 | 00:00:00 | 00:00:00 | |
| RDZ2B | 2026-09-05 00:27:40 | 41.87337 | 9.08137 | 15° | 15km/h | 21071m | 3.4m/s | 0°C | 0% | 0hPa | 0V | 00:00:00 | 00:00:00 | 00:00:00 | |
| IW2NTF | 2026-09-05 00:27:25 | 41.87324 | 9.08149 | 45° | 9km/h | 20994m | 3.3m/s | 0°C | 0% | 0hPa | 0V | 00:00:00 | 00:00:00 | 00:00:00 | |
| RDZBGO | 2026-09-05 00:27:22 | 41.87321 | 9.08147 | 11° | 11km/h | 20990m | 5.4m/s | 0°C | 0% | 0hPa | 0V | 00:00:00 | 00:00:00 | 00:00:00 | |
| RDZ2B | 2026-09-05 00:27:20 | 41.87314 | 9.08151 | 324° | 20km/h | 20980m | 3.6m/s | 0°C | 0% | 0hPa | 0V | 00:00:00 | 00:00:00 | 00:00:00 | |
| IW2NTF | 2026-09-05 00:27:15 | 41.87287 | 9.08164 | 331° | 18km/h | 20933m | 5.7m/s | 0°C | 0% | 0hPa | 0V | 00:00:00 | 00:00:00 | 00:00:00 | |
| RDZBGO | 2026-09-05 00:27:01 | 41.87253 | 9.08178 | 355° | 24km/h | 20891m | 4.5m/s | 0°C | 0% | 0hPa | 0V | 00:00:00 | 00:00:00 | 00:00:00 | |
| RDZ2B | 2026-09-05 00:27:00 | 41.87247 | 9.08180 | 347° | 20km/h | 20886m | 5.3m/s | 0°C | 0% | 0hPa | 0V | 00:00:00 | 00:00:00 | 00:00:00 | |
| RDZBGO | 2026-09-05 00:26:40 | 41.87165 | 9.08244 | 4° | 9km/h | 20791m | 5.1m/s | 0°C | 0% | 0hPa | 0V | 00:00:00 | 00:00:00 | 00:00:00 | |
| RDZ2B | 2026-09-05 00:26:39 | 41.87163 | 9.08244 | 2° | 11km/h | 20786m | 2.9m/s | 0°C | 0% | 0hPa | 0V | 00:00:00 | 00:00:00 | 00:00:00 | |
| RDZ2B | 2026-09-05 00:26:19 | 41.87109 | 9.08285 | 356° | 5km/h | 20693m | 4.5m/s | 0°C | 0% | 0hPa | 0V | 00:00:00 | 00:00:00 | 00:00:00 | |
| RDZBGO | 2026-09-05 00:25:58 | 41.87070 | 9.08316 | 295° | 11km/h | 20592m | 5.2m/s | 0°C | 0% | 0hPa | 0V | 00:00:00 | 00:00:00 | 00:00:00 | |
| RDZ2B | 2026-09-05 00:25:57 | 41.87069 | 9.08320 | 291° | 11km/h | 20587m | 3.7m/s | 0°C | 0% | 0hPa | 0V | 00:00:00 | 00:00:00 | 00:00:00 | |
| RDZ2B | 2026-09-05 00:25:36 | 41.87034 | 9.08329 | 330° | 11km/h | 20489m | 5.6m/s | 0°C | 0% | 0hPa | 0V | 00:00:00 | 00:00:00 | 00:00:00 | |
| RDZ2B | 2026-09-05 00:25:16 | 41.87002 | 9.08344 | 262° | 15km/h | 20394m | 4.8m/s | 0°C | 0% | 0hPa | 0V | 00:00:00 | 00:00:00 | 00:00:00 | |
| RDZBGO | 2026-09-05 00:25:15 | 41.87003 | 9.08348 | 248° | 11km/h | 20389m | 5.0m/s | 0°C | 0% | 0hPa | 0V | 00:00:00 | 00:00:00 | 00:00:00 | |
| IW2NTF | 2026-09-05 00:25:03 | 41.87002 | 9.08379 | 248° | 2km/h | 20315m | 5.4m/s | 0°C | 0% | 0hPa | 0V | 00:00:00 | 00:00:00 | 00:00:00 | |
| RDZBGO | 2026-09-05 00:24:36 | 41.87045 | 9.08382 | 160° | 13km/h | 20205m | 4.1m/s | 0°C | 0% | 0hPa | 0V | 00:00:00 | 00:00:00 | 00:00:00 | |
| RDZ2B | 2026-09-05 00:24:34 | 41.87052 | 9.08381 | 185° | 15km/h | 20196m | 5.2m/s | 0°C | 0% | 0hPa | 0V | 00:00:00 | 00:00:00 | 00:00:00 | |
| RDZBGO | 2026-09-05 00:24:16 | 41.87082 | 9.08363 | 216° | 13km/h | 20112m | 5.7m/s | 0°C | 0% | 0hPa | 0V | 00:00:00 | 00:00:00 | 00:00:00 | |
| RDZ2B | 2026-09-05 00:24:14 | 41.87087 | 9.08369 | 210° | 13km/h | 20104m | 3.3m/s | 0°C | 0% | 0hPa | 0V | 00:00:00 | 00:00:00 | 00:00:00 | |
| RDZBGO | 2026-09-05 00:23:54 | 41.87103 | 9.08419 | 244° | 7km/h | 20016m | 4.5m/s | 0°C | 0% | 0hPa | 0V | 00:00:00 | 00:00:00 | 00:00:00 | |
| RDZ2B | 2026-09-05 00:23:53 | 41.87103 | 9.08422 | 231° | 11km/h | 20011m | 4.7m/s | 0°C | 0% | 0hPa | 0V | 00:00:00 | 00:00:00 | 00:00:00 | |
| RDZBGO | 2026-09-05 00:23:33 | 41.87155 | 9.08529 | 236° | 29km/h | 19924m | 3.1m/s | 0°C | 0% | 0hPa | 0V | 00:00:00 | 00:00:00 | 00:00:00 | |
| RDZ2B | 2026-09-05 00:23:32 | 41.87159 | 9.08537 | 239° | 24km/h | 19920m | 5.3m/s | 0°C | 0% | 0hPa | 0V | 00:00:00 | 00:00:00 | 00:00:00 | |
| RDZBGO | 2026-09-05 00:23:12 | 41.87212 | 9.08598 | 198° | 5km/h | 19831m | 5.0m/s | 0°C | 0% | 0hPa | 0V | 00:00:00 | 00:00:00 | 00:00:00 | |
| RDZ2B | 2026-09-05 00:23:11 | 41.87213 | 9.08597 | 110° | 5km/h | 19826m | 4.2m/s | 0°C | 0% | 0hPa | 0V | 00:00:00 | 00:00:00 | 00:00:00 | |
| RDZBGO | 2026-09-05 00:22:52 | 41.87261 | 9.08584 | 0° | 0km/h | 19743m | 5.0m/s | 0°C | 0% | 0hPa | 0V | 00:00:00 | 00:00:00 | 00:00:00 | |
| RDZ2B | 2026-09-05 00:22:50 | 41.87261 | 9.08586 | 239° | 9km/h | 19735m | 4.6m/s | 0°C | 0% | 0hPa | 0V | 00:00:00 | 00:00:00 | 00:00:00 | |
| RDZBGO | 2026-09-05 00:22:31 | 41.87268 | 9.08585 | 39° | 5km/h | 19653m | 5.1m/s | 0°C | 0% | 0hPa | 0V | 00:00:00 | 00:00:00 | 00:00:00 | |
| RDZBGO | 2026-09-05 00:22:10 | 41.87270 | 9.08586 | 250° | 13km/h | 19558m | 4.0m/s | 0°C | 0% | 0hPa | 0V | 00:00:00 | 00:00:00 | 00:00:00 | |
| RDZ2B | 2026-09-05 00:22:04 | 41.87274 | 9.08603 | 211° | 9km/h | 19531m | 3.2m/s | 0°C | 0% | 0hPa | 0V | 00:00:00 | 00:00:00 | 00:00:00 | |
| RDZBGO | 2026-09-05 00:21:49 | 41.87300 | 9.08642 | 212° | 13km/h | 19463m | 5.7m/s | 0°C | 0% | 0hPa | 0V | 00:00:00 | 00:00:00 | 00:00:00 | |
| RDZ2B | 2026-09-05 00:21:40 | 41.87326 | 9.08657 | 204° | 13km/h | 19423m | 5.3m/s | 0°C | 0% | 0hPa | 0V | 00:00:00 | 00:00:00 | 00:00:00 | |
| RDZBGO | 2026-09-05 00:21:28 | 41.87360 | 9.08670 | 186° | 18km/h | 19369m | 5.7m/s | 0°C | 0% | 0hPa | 0V | 00:00:00 | 00:00:00 | 00:00:00 | |
| RDZ2B | 2026-09-05 00:21:18 | 41.87406 | 9.08672 | 155° | 15km/h | 19323m | 5.8m/s | 0°C | 0% | 0hPa | 0V | 00:00:00 | 00:00:00 | 00:00:00 | |
| RDZBGO | 2026-09-05 00:21:08 | 41.87446 | 9.08654 | 154° | 22km/h | 19278m | 5.0m/s | 0°C | 0% | 0hPa | 0V | 00:00:00 | 00:00:00 | 00:00:00 | |
| RDZ2B | 2026-09-05 00:20:58 | 41.87481 | 9.08614 | 115° | 18km/h | 19233m | 3.9m/s | 0°C | 0% | 0hPa | 0V | 00:00:00 | 00:00:00 | 00:00:00 | |
| RDZBGO | 2026-09-05 00:20:47 | 41.87500 | 9.08566 | 77° | 15km/h | 19182m | 4.6m/s | 0°C | 0% | 0hPa | 0V | 00:00:00 | 00:00:00 | 00:00:00 | |
| RDZ2B | 2026-09-05 00:20:36 | 41.87512 | 9.08508 | 130° | 11km/h | 19134m | 4.1m/s | 0°C | 0% | 0hPa | 0V | 00:00:00 | 00:00:00 | 00:00:00 | |
| RDZBGO | 2026-09-05 00:20:27 | 41.87529 | 9.08449 | 93° | 15km/h | 19095m | 5.5m/s | 0°C | 0% | 0hPa | 0V | 00:00:00 | 00:00:00 | 00:00:00 | |
| RDZ2B | 2026-09-05 00:20:16 | 41.87530 | 9.08380 | 100° | 15km/h | 19045m | 3.9m/s | 0°C | 0% | 0hPa | 0V | 00:00:00 | 00:00:00 | 00:00:00 | |
| RDZBGO | 2026-09-05 00:20:07 | 41.87530 | 9.08331 | 74° | 15km/h | 19005m | 3.8m/s | 0°C | 0% | 0hPa | 0V | 00:00:00 | 00:00:00 | 00:00:00 | |
| RDZ2B | 2026-09-05 00:19:56 | 41.87529 | 9.08282 | 63° | 9km/h | 18956m | 5.6m/s | 0°C | 0% | 0hPa | 0V | 00:00:00 | 00:00:00 | 00:00:00 | |
| RDZBGO | 2026-09-05 00:19:46 | 41.87528 | 9.08256 | 154° | 7km/h | 18912m | 4.3m/s | 0°C | 0% | 0hPa | 0V | 00:00:00 | 00:00:00 | 00:00:00 | |
| RDZ2B | 2026-09-05 00:19:35 | 41.87539 | 9.08234 | 71° | 7km/h | 18865m | 3.0m/s | 0°C | 0% | 0hPa | 0V | 00:00:00 | 00:00:00 | 00:00:00 | |
| RDZBGO | 2026-09-05 00:19:25 | 41.87566 | 9.08199 | 150° | 22km/h | 18821m | 3.4m/s | 0°C | 0% | 0hPa | 0V | 00:00:00 | 00:00:00 | 00:00:00 | |
| RDZ2B | 2026-09-05 00:19:14 | 41.87608 | 9.08168 | 145° | 26km/h | 18771m | 5.6m/s | 0°C | 0% | 0hPa | 0V | 00:00:00 | 00:00:00 | 00:00:00 | |
| RDZBGO | 2026-09-05 00:19:04 | 41.87664 | 9.08130 | 157° | 35km/h | 18728m | 4.6m/s | 0°C | 0% | 0hPa | 0V | 00:00:00 | 00:00:00 | 00:00:00 | |
| RDZ2B | 2026-09-05 00:18:53 | 41.87723 | 9.08067 | 148° | 53km/h | 18681m | 4.1m/s | 0°C | 0% | 0hPa | 0V | 00:00:00 | 00:00:00 | 00:00:00 | |
| RDZBGO | 2026-09-05 00:18:44 | 41.87773 | 9.07995 | 148° | 47km/h | 18643m | 6.0m/s | 0°C | 0% | 0hPa | 0V | 00:00:00 | 00:00:00 | 00:00:00 | |
| RDZ2B | 2026-09-05 00:18:33 | 41.87844 | 9.07892 | 133° | 46km/h | 18590m | 3.2m/s | 0°C | 0% | 0hPa | 0V | 00:00:00 | 00:00:00 | 00:00:00 | |
| RDZBGO | 2026-09-05 00:18:23 | 41.87882 | 9.07778 | 100° | 42km/h | 18545m | 4.8m/s | 0°C | 0% | 0hPa | 0V | 00:00:00 | 00:00:00 | 00:00:00 | |
| RDZ2B | 2026-09-05 00:18:10 | 41.87909 | 9.07616 | 104° | 26km/h | 18485m | 3.9m/s | 0°C | 0% | 0hPa | 0V | 00:00:00 | 00:00:00 | 00:00:00 | |
| RDZBGO | 2026-09-05 00:18:03 | 41.87902 | 9.07540 | 100° | 33km/h | 18453m | 3.9m/s | 0°C | 0% | 0hPa | 0V | 00:00:00 | 00:00:00 | 00:00:00 | |
| RDZ2B | 2026-09-05 00:17:49 | 41.87877 | 9.07378 | 78° | 31km/h | 18392m | 2.9m/s | 0°C | 0% | 0hPa | 0V | 00:00:00 | 00:00:00 | 00:00:00 | |
| RDZBGO | 2026-09-05 00:17:43 | 41.87858 | 9.07299 | 88° | 40km/h | 18366m | 3.3m/s | 0°C | 0% | 0hPa | 0V | 00:00:00 | 00:00:00 | 00:00:00 | |
| RDZ2B | 2026-09-05 00:17:29 | 41.87804 | 9.07155 | 63° | 40km/h | 18304m | 4.2m/s | 0°C | 0% | 0hPa | 0V | 00:00:00 | 00:00:00 | 00:00:00 | |
| RDZBGO | 2026-09-05 00:17:23 | 41.87772 | 9.07094 | 63° | 35km/h | 18276m | 4.5m/s | 0°C | 0% | 0hPa | 0V | 00:00:00 | 00:00:00 | 00:00:00 | |
| IW2NTF | 2026-09-05 00:17:22 | 41.87757 | 9.07066 | 39° | 35km/h | 18261m | 5m/s | 0°C | 0% | 0hPa | 0V | 00:00:00 | 00:00:00 | 00:00:00 | |
| RDZ2B | 2026-09-05 00:17:09 | 41.87701 | 9.06975 | 56° | 29km/h | 18212m | 4.4m/s | 0°C | 0% | 0hPa | 0V | 00:00:00 | 00:00:00 | 00:00:00 | |
| RDZBGO | 2026-09-05 00:17:02 | 41.87669 | 9.06924 | 42° | 27km/h | 18179m | 5.5m/s | 0°C | 0% | 0hPa | 0V | 00:00:00 | 00:00:00 | 00:00:00 | |
| RDZ2B | 2026-09-05 00:16:50 | 41.87619 | 9.06848 | 39° | 22km/h | 18123m | 3.2m/s | 0°C | 0% | 0hPa | 0V | 00:00:00 | 00:00:00 | 00:00:00 | |
| RDZBGO | 2026-09-05 00:16:41 | 41.87601 | 9.06818 | 48° | 9km/h | 18087m | 5.1m/s | 0°C | 0% | 0hPa | 0V | 00:00:00 | 00:00:00 | 00:00:00 | |
| RDZ2B | 2026-09-05 00:16:28 | 41.87588 | 9.06771 | 94° | 13km/h | 18032m | 4.8m/s | 0°C | 0% | 0hPa | 0V | 00:00:00 | 00:00:00 | 00:00:00 | |
| RDZBGO | 2026-09-05 00:16:20 | 41.87594 | 9.06751 | 74° | 9km/h | 17998m | 4.7m/s | 0°C | 0% | 0hPa | 0V | 00:00:00 | 00:00:00 | 00:00:00 | |
| RDZ2B | 2026-09-05 00:16:08 | 41.87608 | 9.06697 | 98° | 24km/h | 17944m | 4.9m/s | 0°C | 0% | 0hPa | 0V | 00:00:00 | 00:00:00 | 00:00:00 | |
| RDZBGO | 2026-09-05 00:16:00 | 41.87622 | 9.06656 | 102° | 11km/h | 17912m | 3.5m/s | 0°C | 0% | 0hPa | 0V | 00:00:00 | 00:00:00 | 00:00:00 | |
| RDZ2B | 2026-09-05 00:15:47 | 41.87661 | 9.06576 | 137° | 18km/h | 17855m | 4.6m/s | 0°C | 0% | 0hPa | 0V | 00:00:00 | 00:00:00 | 00:00:00 | |
| RDZBGO | 2026-09-05 00:15:38 | 41.87696 | 9.06518 | 115° | 26km/h | 17816m | 5.1m/s | 0°C | 0% | 0hPa | 0V | 00:00:00 | 00:00:00 | 00:00:00 | |
| RDZ2B | 2026-09-05 00:15:26 | 41.87754 | 9.06430 | 120° | 31km/h | 17764m | 4.3m/s | 0°C | 0% | 0hPa | 0V | 00:00:00 | 00:00:00 | 00:00:00 | |
| RDZBGO | 2026-09-05 00:15:17 | 41.87802 | 9.06362 | 134° | 35km/h | 17726m | 2.9m/s | 0°C | 0% | 0hPa | 0V | 00:00:00 | 00:00:00 | 00:00:00 | |
| RDZ2B | 2026-09-05 00:15:06 | 41.87866 | 9.06275 | 143° | 37km/h | 17677m | 4.2m/s | 0°C | 0% | 0hPa | 0V | 00:00:00 | 00:00:00 | 00:00:00 | |
| RDZBGO | 2026-09-05 00:14:57 | 41.87920 | 9.06202 | 134° | 31km/h | 17637m | 4.5m/s | 0°C | 0% | 0hPa | 0V | 00:00:00 | 00:00:00 | 00:00:00 | |
| RDZ2B | 2026-09-05 00:14:45 | 41.88005 | 9.06089 | 128° | 37km/h | 17584m | 4.0m/s | 0°C | 0% | 0hPa | 0V | 00:00:00 | 00:00:00 | 00:00:00 | |
| RDZBGO | 2026-09-05 00:14:37 | 41.88066 | 9.05998 | 131° | 37km/h | 17551m | 4.2m/s | 0°C | 0% | 0hPa | 0V | 00:00:00 | 00:00:00 | 00:00:00 | |
| RDZ2B | 2026-09-05 00:14:25 | 41.88160 | 9.05845 | 127° | 38km/h | 17499m | 4.0m/s | 0°C | 0% | 0hPa | 0V | 00:00:00 | 00:00:00 | 00:00:00 | |
| RDZBGO | 2026-09-05 00:14:12 | 41.88248 | 9.05690 | 119° | 38km/h | 17443m | 4.1m/s | 0°C | 0% | 0hPa | 0V | 00:00:00 | 00:00:00 | 00:00:00 | |
| RDZ2B | 2026-09-05 00:14:05 | 41.88292 | 9.05610 | 133° | 44km/h | 17410m | 4.1m/s | 0°C | 0% | 0hPa | 0V | 00:00:00 | 00:00:00 | 00:00:00 | |
| RDZBGO | 2026-09-05 00:13:50 | 41.88366 | 9.05447 | 125° | 31km/h | 17350m | 3.9m/s | 0°C | 0% | 0hPa | 0V | 00:00:00 | 00:00:00 | 00:00:00 | |
| RDZ2B | 2026-09-05 00:13:45 | 41.88389 | 9.05387 | 105° | 46km/h | 17328m | 4.8m/s | 0°C | 0% | 0hPa | 0V | 00:00:00 | 00:00:00 | 00:00:00 | |
| RDZBGO | 2026-09-05 00:13:30 | 41.88412 | 9.05180 | 88° | 44km/h | 17264m | 5.5m/s | 0°C | 0% | 0hPa | 0V | 00:00:00 | 00:00:00 | 00:00:00 | |
| RDZ2B | 2026-09-05 00:13:22 | 41.88416 | 9.05066 | 90° | 42km/h | 17229m | 5.4m/s | 0°C | 0% | 0hPa | 0V | 00:00:00 | 00:00:00 | 00:00:00 | |
| RDZBGO | 2026-09-05 00:13:10 | 41.88403 | 9.04897 | 79° | 40km/h | 17177m | 4.9m/s | 0°C | 0% | 0hPa | 0V | 00:00:00 | 00:00:00 | 00:00:00 | |
| RDZ2B | 2026-09-05 00:13:02 | 41.88389 | 9.04785 | 83° | 44km/h | 17143m | 3.9m/s | 0°C | 0% | 0hPa | 0V | 00:00:00 | 00:00:00 | 00:00:00 | |
| RDZBGO | 2026-09-05 00:12:49 | 41.88342 | 9.04625 | 70° | 35km/h | 17086m | 4.3m/s | 0°C | 0% | 0hPa | 0V | 00:00:00 | 00:00:00 | 00:00:00 | |
| RDZ2B | 2026-09-05 00:12:40 | 41.88317 | 9.04531 | 90° | 27km/h | 17049m | 4.6m/s | 0°C | 0% | 0hPa | 0V | 00:00:00 | 00:00:00 | 00:00:00 | |
| RDZBGO | 2026-09-05 00:12:29 | 41.88287 | 9.04424 | 65° | 29km/h | 17001m | 6.5m/s | 0°C | 0% | 0hPa | 0V | 00:00:00 | 00:00:00 | 00:00:00 | |
| RDZ2B | 2026-09-05 00:12:19 | 41.88249 | 9.04338 | 56° | 33km/h | 16955m | 4.2m/s | 0°C | 0% | 0hPa | 0V | 00:00:00 | 00:00:00 | 00:00:00 | |
| RDZBGO | 2026-09-05 00:12:08 | 41.88212 | 9.04246 | 64° | 29km/h | 16910m | 4.9m/s | 0°C | 0% | 0hPa | 0V | 00:00:00 | 00:00:00 | 00:00:00 | |
| RDZ2B | 2026-09-05 00:11:54 | 41.88158 | 9.04138 | 57° | 27km/h | 16851m | 4.7m/s | 0°C | 0% | 0hPa | 0V | 00:00:00 | 00:00:00 | 00:00:00 | |
| RDZBGO | 2026-09-05 00:11:47 | 41.88130 | 9.04092 | 43° | 29km/h | 16822m | 5.5m/s | 0°C | 0% | 0hPa | 0V | 00:00:00 | 00:00:00 | 00:00:00 | |
| RDZ2B | 2026-09-05 00:11:33 | 41.88073 | 9.03984 | 54° | 29km/h | 16765m | 4.4m/s | 0°C | 0% | 0hPa | 0V | 00:00:00 | 00:00:00 | 00:00:00 | |
| RDZBGO | 2026-09-05 00:11:27 | 41.88051 | 9.03940 | 53° | 24km/h | 16740m | 4.7m/s | 0°C | 0% | 0hPa | 0V | 00:00:00 | 00:00:00 | 00:00:00 | |
| RDZ2B | 2026-09-05 00:11:12 | 41.88021 | 9.03820 | 74° | 24km/h | 16676m | 4.5m/s | 0°C | 0% | 0hPa | 0V | 00:00:00 | 00:00:00 | 00:00:00 | |
| RDZBGO | 2026-09-05 00:11:06 | 41.88003 | 9.03786 | 85° | 24km/h | 16653m | 4.5m/s | 0°C | 0% | 0hPa | 0V | 00:00:00 | 00:00:00 | 00:00:00 | |
| RDZ2B | 2026-09-05 00:10:52 | 41.87979 | 9.03695 | 59° | 22km/h | 16594m | 4.3m/s | 0°C | 0% | 0hPa | 0V | 00:00:00 | 00:00:00 | 00:00:00 | |
| RDZBGO | 2026-09-05 00:10:46 | 41.87968 | 9.03655 | 79° | 27km/h | 16569m | 5.3m/s | 0°C | 0% | 0hPa | 0V | 00:00:00 | 00:00:00 | 00:00:00 | |
| RDZ2B | 2026-09-05 00:10:32 | 41.87931 | 9.03572 | 45° | 15km/h | 16503m | 4.2m/s | 0°C | 0% | 0hPa | 0V | 00:00:00 | 00:00:00 | 00:00:00 | |
| RDZBGO | 2026-09-05 00:10:26 | 41.87927 | 9.03545 | 100° | 11km/h | 16483m | 3.5m/s | 0°C | 0% | 0hPa | 0V | 00:00:00 | 00:00:00 | 00:00:00 | |
| RDZ2B | 2026-09-05 00:10:10 | 41.87934 | 9.03481 | 94° | 13km/h | 16415m | 5.9m/s | 0°C | 0% | 0hPa | 0V | 00:00:00 | 00:00:00 | 00:00:00 | |
| RDZBGO | 2026-09-05 00:10:05 | 41.87936 | 9.03459 | 108° | 20km/h | 16393m | 3.8m/s | 0°C | 0% | 0hPa | 0V | 00:00:00 | 00:00:00 | 00:00:00 | |
| RDZ2B | 2026-09-05 00:09:49 | 41.87990 | 9.03376 | 139° | 22km/h | 16324m | 4.6m/s | 0°C | 0% | 0hPa | 0V | 00:00:00 | 00:00:00 | 00:00:00 | |
| RDZBGO | 2026-09-05 00:09:45 | 41.87999 | 9.03351 | 116° | 16km/h | 16306m | 6.0m/s | 0°C | 0% | 0hPa | 0V | 00:00:00 | 00:00:00 | 00:00:00 | |
| RDZ2B | 2026-09-05 00:09:28 | 41.88010 | 9.03251 | 100° | 15km/h | 16232m | 4.2m/s | 0°C | 0% | 0hPa | 0V | 00:00:00 | 00:00:00 | 00:00:00 | |
| RDZBGO | 2026-09-05 00:09:24 | 41.88011 | 9.03230 | 90° | 20km/h | 16216m | 3.5m/s | 0°C | 0% | 0hPa | 0V | 00:00:00 | 00:00:00 | 00:00:00 | |
| RDZ2B | 2026-09-05 00:09:08 | 41.88020 | 9.03165 | 92° | 11km/h | 16150m | 4.0m/s | 0°C | 0% | 0hPa | 0V | 00:00:00 | 00:00:00 | 00:00:00 | |
| RDZBGO | 2026-09-05 00:09:04 | 41.88019 | 9.03145 | 63° | 18km/h | 16132m | 5.3m/s | 0°C | 0% | 0hPa | 0V | 00:00:00 | 00:00:00 | 00:00:00 | |
| RDZ2B | 2026-09-05 00:08:48 | 41.88029 | 9.03071 | 164° | 7km/h | 16066m | 4.4m/s | 0°C | 0% | 0hPa | 0V | 00:00:00 | 00:00:00 | 00:00:00 | |
| RDZBGO | 2026-09-05 00:08:43 | 41.88040 | 9.03053 | 132° | 20km/h | 16045m | 4.5m/s | 0°C | 0% | 0hPa | 0V | 00:00:00 | 00:00:00 | 00:00:00 | |
| RDZ2B | 2026-09-05 00:08:27 | 41.88077 | 9.02987 | 90° | 15km/h | 15980m | 3.4m/s | 0°C | 0% | 0hPa | 0V | 00:00:00 | 00:00:00 | 00:00:00 | |
| RDZBGO | 2026-09-05 00:08:23 | 41.88092 | 9.02960 | 145° | 27km/h | 15964m | 4.3m/s | 0°C | 0% | 0hPa | 0V | 00:00:00 | 00:00:00 | 00:00:00 | |
| RDZ2B | 2026-09-05 00:08:16 | 41.88139 | 9.02850 | 112° | 24km/h | 15900m | 3.8m/s | 0°C | 0% | 0hPa | 0V | 00:00:00 | 00:00:00 | 00:00:00 | |
| RDZ2B | 2026-09-05 00:07:47 | 41.88191 | 9.02645 | 108° | 38km/h | 15820m | 4.4m/s | 0°C | 0% | 0hPa | 0V | 00:00:00 | 00:00:00 | 00:00:00 | |
| RDZBGO | 2026-09-05 00:07:43 | 41.88202 | 9.02598 | 119° | 38km/h | 15804m | 4.8m/s | 0°C | 0% | 0hPa | 0V | 00:00:00 | 00:00:00 | 00:00:00 | |
| RDZ2B | 2026-09-05 00:07:27 | 41.88272 | 9.02436 | 122° | 33km/h | 15737m | 4.3m/s | 0°C | 0% | 0hPa | 0V | 00:00:00 | 00:00:00 | 00:00:00 | |
| RDZBGO | 2026-09-05 00:07:23 | 41.88290 | 9.02403 | 122° | 27km/h | 15722m | 3.5m/s | 0°C | 0% | 0hPa | 0V | 00:00:00 | 00:00:00 | 00:00:00 | |
| RDZ2B | 2026-09-05 00:07:06 | 41.88360 | 9.02266 | 106° | 24km/h | 15654m | 2.7m/s | 0°C | 0% | 0hPa | 0V | 00:00:00 | 00:00:00 | 00:00:00 | |
| RDZBGO | 2026-09-05 00:07:02 | 41.88372 | 9.02227 | 117° | 31km/h | 15638m | 5.6m/s | 0°C | 0% | 0hPa | 0V | 00:00:00 | 00:00:00 | 00:00:00 | |
| RDZ2B | 2026-09-05 00:06:46 | 41.88395 | 9.02083 | 96° | 26km/h | 15571m | 2.9m/s | 0°C | 0% | 0hPa | 0V | 00:00:00 | 00:00:00 | 00:00:00 | |
| RDZBGO | 2026-09-05 00:06:41 | 41.88392 | 9.02035 | 95° | 26km/h | 15550m | 3.2m/s | 0°C | 0% | 0hPa | 0V | 00:00:00 | 00:00:00 | 00:00:00 | |
| RDZ2B | 2026-09-05 00:06:24 | 41.88392 | 9.01934 | 94° | 22km/h | 15481m | 3.4m/s | 0°C | 0% | 0hPa | 0V | 00:00:00 | 00:00:00 | 00:00:00 | |
| RDZBGO | 2026-09-05 00:06:20 | 41.88392 | 9.01906 | 102° | 20km/h | 15466m | 3.2m/s | 0°C | 0% | 0hPa | 0V | 00:00:00 | 00:00:00 | 00:00:00 | |
| RDZ2B | 2026-09-05 00:06:01 | 41.88408 | 9.01781 | 104° | 24km/h | 15391m | 3.9m/s | 0°C | 0% | 0hPa | 0V | 00:00:00 | 00:00:00 | 00:00:00 | |
| RDZBGO | 2026-09-05 00:05:59 | 41.88412 | 9.01767 | 119° | 24km/h | 15381m | 4.9m/s | 0°C | 0% | 0hPa | 0V | 00:00:00 | 00:00:00 | 00:00:00 | |
| RDZBGO | 2026-09-05 00:05:38 | 41.88461 | 9.01617 | 115° | 18km/h | 15293m | 5.2m/s | 0°C | 0% | 0hPa | 0V | 00:00:00 | 00:00:00 | 00:00:00 | |
| RDZ2B | 2026-09-05 00:05:34 | 41.88466 | 9.01591 | 98° | 26km/h | 15278m | 3.1m/s | 0°C | 0% | 0hPa | 0V | 00:00:00 | 00:00:00 | 00:00:00 | |
| RDZBGO | 2026-09-05 00:05:17 | 41.88515 | 9.01482 | 131° | 37km/h | 15206m | 3.0m/s | 0°C | 0% | 0hPa | 0V | 00:00:00 | 00:00:00 | 00:00:00 | |
| RDZ2B | 2026-09-05 00:05:13 | 41.88536 | 9.01453 | 131° | 24km/h | 15190m | 4.1m/s | 0°C | 0% | 0hPa | 0V | 00:00:00 | 00:00:00 | 00:00:00 | |
| RDZBGO | 2026-09-05 00:04:57 | 41.88591 | 9.01327 | 111° | 26km/h | 15123m | 5.1m/s | 0°C | 0% | 0hPa | 0V | 00:00:00 | 00:00:00 | 00:00:00 | |
| RDZ2B | 2026-09-05 00:04:47 | 41.88612 | 9.01237 | 116° | 29km/h | 15075m | 5.2m/s | 0°C | 0% | 0hPa | 0V | 00:00:00 | 00:00:00 | 00:00:00 | |
| RDZBGO | 2026-09-05 00:04:37 | 41.88632 | 9.01160 | 103° | 20km/h | 15040m | 3.4m/s | 0°C | 0% | 0hPa | 0V | 00:00:00 | 00:00:00 | 00:00:00 | |
| RDZ2B | 2026-09-05 00:04:22 | 41.88638 | 9.01040 | 98° | 27km/h | 14980m | 3.8m/s | 0°C | 0% | 0hPa | 0V | 00:00:00 | 00:00:00 | 00:00:00 | |
| RDZBGO | 2026-09-05 00:04:16 | 41.88643 | 9.00986 | 88° | 35km/h | 14955m | 3.6m/s | 0°C | 0% | 0hPa | 0V | 00:00:00 | 00:00:00 | 00:00:00 | |
| RDZ2B | 2026-09-05 00:03:59 | 41.88679 | 9.00827 | 109° | 31km/h | 14888m | 3.9m/s | 0°C | 0% | 0hPa | 0V | 00:00:00 | 00:00:00 | 00:00:00 | |
| RDZBGO | 2026-09-05 00:03:55 | 41.88687 | 9.00773 | 94° | 37km/h | 14871m | 4.8m/s | 0°C | 0% | 0hPa | 0V | 00:00:00 | 00:00:00 | 00:00:00 | |
| RDZ2B | 2026-09-05 00:03:35 | 41.88688 | 9.00545 | 88° | 38km/h | 14790m | 4.7m/s | 0°C | 0% | 0hPa | 0V | 00:00:00 | 00:00:00 | 00:00:00 | |
| RDZBGO | 2026-09-05 00:03:33 | 41.88689 | 9.00518 | 100° | 40km/h | 14783m | 3.6m/s | 0°C | 0% | 0hPa | 0V | 00:00:00 | 00:00:00 | 00:00:00 | |
| RDZ2B | 2026-09-05 00:03:15 | 41.88684 | 9.00357 | 73° | 37km/h | 14706m | 4.8m/s | 0°C | 0% | 0hPa | 0V | 00:00:00 | 00:00:00 | 00:00:00 | |
| RDZBGO | 2026-09-05 00:03:12 | 41.88677 | 9.00327 | 90° | 24km/h | 14694m | 4.7m/s | 0°C | 0% | 0hPa | 0V | 00:00:00 | 00:00:00 | 00:00:00 | |
| RDZBGO | 2026-09-05 00:02:56 | 41.88641 | 9.00201 | 73° | 16km/h | 14610m | 5.1m/s | 0°C | 0% | 0hPa | 0V | 00:00:00 | 00:00:00 | 00:00:00 | |
| IW2NTF | 2026-09-05 00:02:51 | 41.88631 | 9.00148 | 79° | 20km/h | 14578m | 4.2m/s | 0°C | 0% | 0hPa | 0V | 00:00:00 | 00:00:00 | 00:00:00 | |
| RDZ2B | 2026-09-05 00:02:36 | 41.88624 | 9.00086 | 70° | 20km/h | 14544m | 4.7m/s | 0°C | 0% | 0hPa | 0V | 00:00:00 | 00:00:00 | 00:00:00 | |
| IW2NTF | 2026-09-05 00:02:34 | 41.88620 | 9.00057 | 84° | 24km/h | 14524m | 3.9m/s | 0°C | 0% | 0hPa | 0V | 00:00:00 | 00:00:00 | 00:00:00 | |
| RDZBGO | 2026-09-05 00:02:30 | 41.88619 | 9.00057 | 86° | 26km/h | 14524m | 3.9m/s | 0°C | 0% | 0hPa | 0V | 00:00:00 | 00:00:00 | 00:00:00 | |
| IW2NTF | 2026-09-05 00:02:26 | 41.88615 | 8.99989 | 99° | 15km/h | 14483m | 3.5m/s | 0°C | 0% | 0hPa | 0V | 00:00:00 | 00:00:00 | 00:00:00 | |
| RDZ2B | 2026-09-05 00:02:17 | 41.88622 | 8.99949 | 107° | 16km/h | 14457m | 5.4m/s | 0°C | 0% | 0hPa | 0V | 00:00:00 | 00:00:00 | 00:00:00 | |
| RDZBGO | 2026-09-05 00:02:12 | 41.88628 | 8.99920 | 123° | 26km/h | 14440m | 3.8m/s | 0°C | 0% | 0hPa | 0V | 00:00:00 | 00:00:00 | 00:00:00 | |
| IW2NTF | 2026-09-05 00:01:52 | 41.88659 | 8.99758 | 101° | 33km/h | 14369m | 5.9m/s | 0°C | 0% | 0hPa | 0V | 00:00:00 | 00:00:00 | 00:00:00 | |
| RDZBGO | 2026-09-05 00:01:32 | 41.88706 | 8.99531 | 100° | 44km/h | 14279m | 3.6m/s | 0°C | 0% | 0hPa | 0V | 00:00:00 | 00:00:00 | 00:00:00 | |
| RDZ2B | 2026-09-05 00:01:28 | 41.88722 | 8.99479 | 122° | 33km/h | 14263m | 3.3m/s | 0°C | 0% | 0hPa | 0V | 00:00:00 | 00:00:00 | 00:00:00 | |
| RDZBGO | 2026-09-05 00:01:12 | 41.88771 | 8.99295 | 113° | 37km/h | 14199m | 4.6m/s | 0°C | 0% | 0hPa | 0V | 00:00:00 | 00:00:00 | 00:00:00 | |
| RDZ2B | 2026-09-05 00:01:08 | 41.88787 | 8.99249 | 106° | 37km/h | 14183m | 3.8m/s | 0°C | 0% | 0hPa | 0V | 00:00:00 | 00:00:00 | 00:00:00 | |
| RDZBGO | 2026-09-05 00:00:48 | 41.88844 | 8.99028 | 110° | 40km/h | 14110m | 4.8m/s | 0°C | 0% | 0hPa | 0V | 00:00:00 | 00:00:00 | 00:00:00 | |
| RDZ2B | 2026-09-05 00:00:45 | 41.88859 | 8.98986 | 99° | 31km/h | 14095m | 4.2m/s | 0°C | 0% | 0hPa | 0V | 00:00:00 | 00:00:00 | 00:00:00 | |
| RDZBGO | 2026-09-05 00:00:28 | 41.88903 | 8.98785 | 114° | 40km/h | 14032m | 4.8m/s | 0°C | 0% | 0hPa | 0V | 00:00:00 | 00:00:00 | 00:00:00 | |
| RDZ2B | 2026-09-05 00:00:25 | 41.88922 | 8.98739 | 121° | 40km/h | 14014m | 3.4m/s | 0°C | 0% | 0hPa | 0V | 00:00:00 | 00:00:00 | 00:00:00 | |
| RDZBGO | 2026-09-05 00:00:08 | 41.89001 | 8.98533 | 123° | 53km/h | 13947m | 3.4m/s | 0°C | 0% | 0hPa | 0V | 00:00:00 | 00:00:00 | 00:00:00 | |
| RDZBGO | 2026-09-04 23:59:47 | 41.89098 | 8.98228 | 114° | 47km/h | 13857m | 4.2m/s | 0°C | 0% | 0hPa | 0V | 00:00:00 | 00:00:00 | 00:00:00 | |
| RDZ2B | 2026-09-04 23:59:43 | 41.89116 | 8.98176 | 110° | 40km/h | 13838m | 4.2m/s | 0°C | 0% | 0hPa | 0V | 00:00:00 | 00:00:00 | 00:00:00 | |
| RDZBGO | 2026-09-04 23:59:26 | 41.89164 | 8.97941 | 115° | 38km/h | 13769m | 3.5m/s | 0°C | 0% | 0hPa | 0V | 00:00:00 | 00:00:00 | 00:00:00 | |
| RDZ2B | 2026-09-04 23:59:23 | 41.89178 | 8.97899 | 114° | 44km/h | 13756m | 3.3m/s | 0°C | 0% | 0hPa | 0V | 00:00:00 | 00:00:00 | 00:00:00 | |
| RDZ2B | 2026-09-04 23:59:01 | 41.89215 | 8.97648 | 99° | 31km/h | 13667m | 4.1m/s | 0°C | 0% | 0hPa | 0V | 00:00:00 | 00:00:00 | 00:00:00 | |
| RDZBGO | 2026-09-04 23:58:44 | 41.89223 | 8.97501 | 96° | 26km/h | 13596m | 4.8m/s | 0°C | 0% | 0hPa | 0V | 00:00:00 | 00:00:00 | 00:00:00 | |
| RDZ2B | 2026-09-04 23:58:41 | 41.89225 | 8.97475 | 99° | 24km/h | 13584m | 5.2m/s | 0°C | 0% | 0hPa | 0V | 00:00:00 | 00:00:00 | 00:00:00 | |
| RDZBGO | 2026-09-04 23:58:24 | 41.89235 | 8.97347 | 90° | 22km/h | 13510m | 5.8m/s | 0°C | 0% | 0hPa | 0V | 00:00:00 | 00:00:00 | 00:00:00 | |
| RDZ2B | 2026-09-04 23:58:20 | 41.89238 | 8.97311 | 107° | 29km/h | 13493m | 3.6m/s | 0°C | 0% | 0hPa | 0V | 00:00:00 | 00:00:00 | 00:00:00 | |
| RDZBGO | 2026-09-04 23:58:04 | 41.89257 | 8.97187 | 106° | 27km/h | 13428m | 4.9m/s | 0°C | 0% | 0hPa | 0V | 00:00:00 | 00:00:00 | 00:00:00 | |
| RDZ2B | 2026-09-04 23:58:00 | 41.89263 | 8.97153 | 94° | 26km/h | 13411m | 3.7m/s | 0°C | 0% | 0hPa | 0V | 00:00:00 | 00:00:00 | 00:00:00 | |
| RDZBGO | 2026-09-04 23:57:44 | 41.89287 | 8.97033 | 104° | 18km/h | 13347m | 4.7m/s | 0°C | 0% | 0hPa | 0V | 00:00:00 | 00:00:00 | 00:00:00 | |
| RDZ2B | 2026-09-04 23:57:39 | 41.89296 | 8.96996 | 99° | 26km/h | 13327m | 3.4m/s | 0°C | 0% | 0hPa | 0V | 00:00:00 | 00:00:00 | 00:00:00 | |
| RDZBGO | 2026-09-04 23:57:24 | 41.89325 | 8.96873 | 107° | 27km/h | 13265m | 5.6m/s | 0°C | 0% | 0hPa | 0V | 00:00:00 | 00:00:00 | 00:00:00 | |
| RDZ2B | 2026-09-04 23:57:18 | 41.89335 | 8.96826 | 108° | 26km/h | 13241m | 4.8m/s | 0°C | 0% | 0hPa | 0V | 00:00:00 | 00:00:00 | 00:00:00 | |
| RDZBGO | 2026-09-04 23:57:00 | 41.89377 | 8.96648 | 106° | 33km/h | 13169m | 5.4m/s | 0°C | 0% | 0hPa | 0V | 00:00:00 | 00:00:00 | 00:00:00 | |
| RDZ2B | 2026-09-04 23:56:57 | 41.89383 | 8.96620 | 106° | 31km/h | 13156m | 4.5m/s | 0°C | 0% | 0hPa | 0V | 00:00:00 | 00:00:00 | 00:00:00 | |
| RDZ2B | 2026-09-04 23:56:37 | 41.89433 | 8.96412 | 116° | 31km/h | 13073m | 5.2m/s | 0°C | 0% | 0hPa | 0V | 00:00:00 | 00:00:00 | 00:00:00 | |
| RDZBGO | 2026-09-04 23:56:13 | 41.89486 | 8.96168 | 91° | 31km/h | 12977m | 4.8m/s | 0°C | 0% | 0hPa | 0V | 00:00:00 | 00:00:00 | 00:00:00 | |
| RDZ2B | 2026-09-04 23:56:11 | 41.89486 | 8.96142 | 91° | 40km/h | 12968m | 5.2m/s | 0°C | 0% | 0hPa | 0V | 00:00:00 | 00:00:00 | 00:00:00 | |
| RDZBGO | 2026-09-04 23:55:52 | 41.89512 | 8.95945 | 82° | 37km/h | 12886m | 3.2m/s | 0°C | 0% | 0hPa | 0V | 00:00:00 | 00:00:00 | 00:00:00 | |
| RDZ2B | 2026-09-04 23:55:50 | 41.89506 | 8.95920 | 67° | 38km/h | 12880m | 2.8m/s | 0°C | 0% | 0hPa | 0V | 00:00:00 | 00:00:00 | 00:00:00 | |
| RDZBGO | 2026-09-04 23:55:32 | 41.89485 | 8.95735 | 37° | 15km/h | 12777m | 4.2m/s | 0°C | 0% | 0hPa | 0V | 00:00:00 | 00:00:00 | 00:00:00 | |
| RDZ2B | 2026-09-04 23:55:28 | 41.89468 | 8.95721 | 92° | 26km/h | 12767m | 4.8m/s | 0°C | 0% | 0hPa | 0V | 00:00:00 | 00:00:00 | 00:00:00 | |
| RDZBGO | 2026-09-04 23:55:11 | 41.89471 | 8.95584 | 344° | 13km/h | 12668m | 5.1m/s | 0°C | 0% | 0hPa | 0V | 00:00:00 | 00:00:00 | 00:00:00 | |
| RDZ2B | 2026-09-04 23:55:06 | 41.89462 | 8.95549 | 104° | 37km/h | 12641m | 4.5m/s | 0°C | 0% | 0hPa | 0V | 00:00:00 | 00:00:00 | 00:00:00 | |
| RDZBGO | 2026-09-04 23:54:51 | 41.89434 | 8.95468 | 56° | 13km/h | 12558m | 4.6m/s | 0°C | 0% | 0hPa | 0V | 00:00:00 | 00:00:00 | 00:00:00 | |
| RDZ2B | 2026-09-04 23:54:46 | 41.89412 | 8.95442 | 88° | 13km/h | 12529m | 5.5m/s | 0°C | 0% | 0hPa | 0V | 00:00:00 | 00:00:00 | 00:00:00 | |
| RDZBGO | 2026-09-04 23:54:29 | 41.89356 | 8.95389 | 37° | 16km/h | 12457m | 4.2m/s | 0°C | 0% | 0hPa | 0V | 00:00:00 | 00:00:00 | 00:00:00 | |
| RDZ2B | 2026-09-04 23:54:25 | 41.89342 | 8.95384 | 5° | 20km/h | 12439m | 5.0m/s | 0°C | 0% | 0hPa | 0V | 00:00:00 | 00:00:00 | 00:00:00 | |
| RDZBGO | 2026-09-04 23:54:09 | 41.89287 | 8.95351 | 18° | 11km/h | 12372m | 4.0m/s | 0°C | 0% | 0hPa | 0V | 00:00:00 | 00:00:00 | 00:00:00 | |
| RDZ2B | 2026-09-04 23:54:04 | 41.89271 | 8.95340 | 44° | 26km/h | 12347m | 5.1m/s | 0°C | 0% | 0hPa | 0V | 00:00:00 | 00:00:00 | 00:00:00 | |
| RDZBGO | 2026-09-04 23:53:48 | 41.89231 | 8.95261 | 16° | 16km/h | 12269m | 4.5m/s | 0°C | 0% | 0hPa | 0V | 00:00:00 | 00:00:00 | 00:00:00 | |
| RDZ2B | 2026-09-04 23:53:43 | 41.89211 | 8.95238 | 41° | 20km/h | 12245m | 3.2m/s | 0°C | 0% | 0hPa | 0V | 00:00:00 | 00:00:00 | 00:00:00 | |
| RDZBGO | 2026-09-04 23:53:30 | 41.89180 | 8.95188 | 54° | 16km/h | 12167m | 6.9m/s | 0°C | 0% | 0hPa | 0V | 00:00:00 | 00:00:00 | 00:00:00 | |
| RDZBGO | 2026-09-04 23:53:07 | 41.89142 | 8.95052 | 90° | 22km/h | 12054m | 3.0m/s | 0°C | 0% | 0hPa | 0V | 00:00:00 | 00:00:00 | 00:00:00 | |
| RDZ2B | 2026-09-04 23:53:01 | 41.89130 | 8.95012 | 60° | 15km/h | 12026m | 8.2m/s | 0°C | 0% | 0hPa | 0V | 00:00:00 | 00:00:00 | 00:00:00 | |
| RDZBGO | 2026-09-04 23:52:46 | 41.89110 | 8.94914 | 80° | 24km/h | 11945m | 5.5m/s | 0°C | 0% | 0hPa | 0V | 00:00:00 | 00:00:00 | 00:00:00 | |
| RDZ2B | 2026-09-04 23:52:40 | 41.89105 | 8.94870 | 75° | 18km/h | 11914m | 4.2m/s | 0°C | 0% | 0hPa | 0V | 00:00:00 | 00:00:00 | 00:00:00 | |
| RDZBGO | 2026-09-04 23:52:24 | 41.89087 | 8.94745 | 77° | 26km/h | 11827m | 5.7m/s | 0°C | 0% | 0hPa | 0V | 00:00:00 | 00:00:00 | 00:00:00 | |
| RDZ2B | 2026-09-04 23:52:19 | 41.89071 | 8.94705 | 67° | 22km/h | 11801m | 6.3m/s | 0°C | 0% | 0hPa | 0V | 00:00:00 | 00:00:00 | 00:00:00 | |
| RDZBGO | 2026-09-04 23:52:03 | 41.89038 | 8.94619 | 73° | 20km/h | 11716m | 8.2m/s | 0°C | 0% | 0hPa | 0V | 00:00:00 | 00:00:00 | 00:00:00 | |
| RDZ2B | 2026-09-04 23:51:58 | 41.89027 | 8.94582 | 74° | 24km/h | 11690m | 4.2m/s | 0°C | 0% | 0hPa | 0V | 00:00:00 | 00:00:00 | 00:00:00 | |
| RDZBGO | 2026-09-04 23:51:42 | 41.88988 | 8.94461 | 67° | 29km/h | 11603m | 8.2m/s | 0°C | 0% | 0hPa | 0V | 00:00:00 | 00:00:00 | 00:00:00 | |
| RDZ2B | 2026-09-04 23:51:37 | 41.88975 | 8.94415 | 62° | 22km/h | 11575m | 2.3m/s | 0°C | 0% | 0hPa | 0V | 00:00:00 | 00:00:00 | 00:00:00 | |
| RDZBGO | 2026-09-04 23:51:22 | 41.88936 | 8.94295 | 68° | 33km/h | 11498m | 4.7m/s | 0°C | 0% | 0hPa | 0V | 00:00:00 | 00:00:00 | 00:00:00 | |
| RDZ2B | 2026-09-04 23:51:16 | 41.88919 | 8.94249 | 70° | 22km/h | 11466m | 4.6m/s | 0°C | 0% | 0hPa | 0V | 00:00:00 | 00:00:00 | 00:00:00 | |
| RDZBGO | 2026-09-04 23:51:01 | 41.88890 | 8.94132 | 91° | 24km/h | 11386m | 3.0m/s | 0°C | 0% | 0hPa | 0V | 00:00:00 | 00:00:00 | 00:00:00 | |
| RDZ2B | 2026-09-04 23:50:56 | 41.88874 | 8.94092 | 51° | 24km/h | 11360m | 5.6m/s | 0°C | 0% | 0hPa | 0V | 00:00:00 | 00:00:00 | 00:00:00 | |
| RDZBGO | 2026-09-04 23:50:41 | 41.88845 | 8.93965 | 92° | 26km/h | 11278m | 4.7m/s | 0°C | 0% | 0hPa | 0V | 00:00:00 | 00:00:00 | 00:00:00 | |
| RDZ2B | 2026-09-04 23:50:36 | 41.88830 | 8.93924 | 57° | 29km/h | 11254m | 8.7m/s | 0°C | 0% | 0hPa | 0V | 00:00:00 | 00:00:00 | 00:00:00 | |
| RDZBGO | 2026-09-04 23:50:20 | 41.88793 | 8.93805 | 83° | 20km/h | 11165m | 5.2m/s | 0°C | 0% | 0hPa | 0V | 00:00:00 | 00:00:00 | 00:00:00 | |
| RDZ2B | 2026-09-04 23:50:16 | 41.88781 | 8.93768 | 67° | 27km/h | 11145m | 4.1m/s | 0°C | 0% | 0hPa | 0V | 00:00:00 | 00:00:00 | 00:00:00 | |
| RDZBGO | 2026-09-04 23:50:00 | 41.88739 | 8.93651 | 44° | 24km/h | 11058m | 3.3m/s | 0°C | 0% | 0hPa | 0V | 00:00:00 | 00:00:00 | 00:00:00 | |
| RDZ2B | 2026-09-04 23:49:50 | 41.88710 | 8.93585 | 41° | 29km/h | 11001m | 6.4m/s | 0°C | 0% | 0hPa | 0V | 00:00:00 | 00:00:00 | 00:00:00 | |
| RDZBGO | 2026-09-04 23:49:40 | 41.88680 | 8.93514 | 62° | 16km/h | 10948m | 3.1m/s | 0°C | 0% | 0hPa | 0V | 00:00:00 | 00:00:00 | 00:00:00 | |
| RDZ2B | 2026-09-04 23:49:29 | 41.88652 | 8.93427 | 53° | 31km/h | 10884m | 3.1m/s | 0°C | 0% | 0hPa | 0V | 00:00:00 | 00:00:00 | 00:00:00 | |
| RDZBGO | 2026-09-04 23:49:19 | 41.88627 | 8.93358 | 78° | 29km/h | 10833m | 6.8m/s | 0°C | 0% | 0hPa | 0V | 00:00:00 | 00:00:00 | 00:00:00 | |
| RDZ2B | 2026-09-04 23:49:04 | 41.88585 | 8.93259 | 80° | 15km/h | 10752m | 4.5m/s | 0°C | 0% | 0hPa | 0V | 00:00:00 | 00:00:00 | 00:00:00 | |
| RDZBGO | 2026-09-04 23:48:59 | 41.88580 | 8.93227 | 52° | 22km/h | 10724m | 8.5m/s | 0°C | 0% | 0hPa | 0V | 00:00:00 | 00:00:00 | 00:00:00 | |
| RDZ2B | 2026-09-04 23:48:39 | 41.88526 | 8.93112 | 78° | 22km/h | 10613m | 5.8m/s | 0°C | 0% | 0hPa | 0V | 00:00:00 | 00:00:00 | 00:00:00 | |
| RDZBGO | 2026-09-04 23:48:38 | 41.88525 | 8.93102 | 81° | 33km/h | 10607m | 5.5m/s | 0°C | 0% | 0hPa | 0V | 00:00:00 | 00:00:00 | 00:00:00 | |
| RDZBGO | 2026-09-04 23:48:17 | 41.88484 | 8.92925 | 93° | 27km/h | 10499m | 6.4m/s | 0°C | 0% | 0hPa | 0V | 00:00:00 | 00:00:00 | 00:00:00 | |
| RDZ2B | 2026-09-04 23:48:13 | 41.88470 | 8.92898 | 41° | 29km/h | 10477m | 8.9m/s | 0°C | 0% | 0hPa | 0V | 00:00:00 | 00:00:00 | 00:00:00 | |
| RDZBGO | 2026-09-04 23:47:57 | 41.88449 | 8.92763 | 96° | 33km/h | 10388m | 3.2m/s | 0°C | 0% | 0hPa | 0V | 00:00:00 | 00:00:00 | 00:00:00 | |
| RDZ2B | 2026-09-04 23:47:48 | 41.88435 | 8.92685 | 88° | 37km/h | 10338m | 5.6m/s | 0°C | 0% | 0hPa | 0V | 00:00:00 | 00:00:00 | 00:00:00 | |
| RDZBGO | 2026-09-04 23:47:37 | 41.88419 | 8.92590 | 81° | 31km/h | 10282m | 6.0m/s | 0°C | 0% | 0hPa | 0V | 00:00:00 | 00:00:00 | 00:00:00 | |
| RDZ2B | 2026-09-04 23:47:27 | 41.88419 | 8.92510 | 88° | 27km/h | 10233m | 5.9m/s | 0°C | 0% | 0hPa | 0V | 00:00:00 | 00:00:00 | 00:00:00 | |
| RDZBGO | 2026-09-04 23:47:17 | 41.88421 | 8.92431 | 95° | 27km/h | 10177m | 7.8m/s | 0°C | 0% | 0hPa | 0V | 00:00:00 | 00:00:00 | 00:00:00 | |
| RDZ2B | 2026-09-04 23:47:06 | 41.88426 | 8.92348 | 84° | 20km/h | 10117m | 3.9m/s | 0°C | 0% | 0hPa | 0V | 00:00:00 | 00:00:00 | 00:00:00 | |
| RDZBGO | 2026-09-04 23:46:56 | 41.88417 | 8.92274 | 80° | 20km/h | 10061m | 5.7m/s | 0°C | 0% | 0hPa | 0V | 00:00:00 | 00:00:00 | 00:00:00 | |
| RDZBGO | 2026-09-04 23:46:36 | 41.88419 | 8.92123 | 81° | 27km/h | 9961m | 5.3m/s | 0°C | 0% | 0hPa | 0V | 00:00:00 | 00:00:00 | 00:00:00 | |
| RDZ2B | 2026-09-04 23:46:22 | 41.88421 | 8.92030 | 81° | 26km/h | 9882m | 6.4m/s | 0°C | 0% | 0hPa | 0V | 00:00:00 | 00:00:00 | 00:00:00 | |
| RDZBGO | 2026-09-04 23:46:15 | 41.88424 | 8.91969 | 61° | 29km/h | 9847m | 4.7m/s | 0°C | 0% | 0hPa | 0V | 00:00:00 | 00:00:00 | 00:00:00 | |
| RDZ2B | 2026-09-04 23:46:02 | 41.88428 | 8.91877 | 135° | 26km/h | 9784m | 2.8m/s | 0°C | 0% | 0hPa | 0V | 00:00:00 | 00:00:00 | 00:00:00 | |
| RDZBGO | 2026-09-04 23:45:54 | 41.88426 | 8.91809 | 149° | 24km/h | 9745m | 5.6m/s | 0°C | 0% | 0hPa | 0V | 00:00:00 | 00:00:00 | 00:00:00 | |
| RDZ2B | 2026-09-04 23:45:41 | 41.88454 | 8.91714 | 112° | 29km/h | 9659m | 5.7m/s | 0°C | 0% | 0hPa | 0V | 00:00:00 | 00:00:00 | 00:00:00 | |
| RDZBGO | 2026-09-04 23:45:34 | 41.88474 | 8.91647 | 139° | 37km/h | 9627m | 3.4m/s | 0°C | 0% | 0hPa | 0V | 00:00:00 | 00:00:00 | 00:00:00 | |
| RDZ2B | 2026-09-04 23:45:17 | 41.88514 | 8.91516 | 106° | 37km/h | 9534m | 6.9m/s | 0°C | 0% | 0hPa | 0V | 00:00:00 | 00:00:00 | 00:00:00 | |
| RDZBGO | 2026-09-04 23:45:14 | 41.88514 | 8.91485 | 93° | 24km/h | 9516m | 5.6m/s | 0°C | 0% | 0hPa | 0V | 00:00:00 | 00:00:00 | 00:00:00 | |
| RDZ2B | 2026-09-04 23:44:55 | 41.88564 | 8.91321 | 99° | 22km/h | 9417m | 4.2m/s | 0°C | 0% | 0hPa | 0V | 00:00:00 | 00:00:00 | 00:00:00 | |
| RDZBGO | 2026-09-04 23:44:53 | 41.88568 | 8.91311 | 135° | 18km/h | 9406m | 4.2m/s | 0°C | 0% | 0hPa | 0V | 00:00:00 | 00:00:00 | 00:00:00 | |
| RDZBGO | 2026-09-04 23:44:32 | 41.88625 | 8.91135 | 119° | 29km/h | 9295m | 3.5m/s | 0°C | 0% | 0hPa | 0V | 00:00:00 | 00:00:00 | 00:00:00 | |
| RDZ2B | 2026-09-04 23:44:28 | 41.88636 | 8.91088 | 112° | 35km/h | 9277m | 6.1m/s | 0°C | 0% | 0hPa | 0V | 00:00:00 | 00:00:00 | 00:00:00 | |
| RDZBGO | 2026-09-04 23:44:12 | 41.88671 | 8.90951 | 113° | 37km/h | 9201m | 2.2m/s | 0°C | 0% | 0hPa | 0V | 00:00:00 | 00:00:00 | 00:00:00 | |
| RDZ2B | 2026-09-04 23:44:06 | 41.88679 | 8.90899 | 88° | 26km/h | 9170m | 5.7m/s | 0°C | 0% | 0hPa | 0V | 00:00:00 | 00:00:00 | 00:00:00 | |
| RDZBGO | 2026-09-04 23:43:51 | 41.88712 | 8.90776 | 117° | 22km/h | 9088m | 7.4m/s | 0°C | 0% | 0hPa | 0V | 00:00:00 | 00:00:00 | 00:00:00 | |
| RDZ2B | 2026-09-04 23:43:44 | 41.88730 | 8.90728 | 107° | 35km/h | 9048m | 5.0m/s | 0°C | 0% | 0hPa | 0V | 00:00:00 | 00:00:00 | 00:00:00 | |
| RDZBGO | 2026-09-04 23:43:30 | 41.88768 | 8.90599 | 109° | 35km/h | 8973m | 8.3m/s | 0°C | 0% | 0hPa | 0V | 00:00:00 | 00:00:00 | 00:00:00 | |
| RDZ2B | 2026-09-04 23:43:24 | 41.88773 | 8.90556 | 128° | 33km/h | 8942m | 5.6m/s | 0°C | 0% | 0hPa | 0V | 00:00:00 | 00:00:00 | 00:00:00 | |
| RDZBGO | 2026-09-04 23:43:09 | 41.88804 | 8.90407 | 83° | 37km/h | 8856m | 5.4m/s | 0°C | 0% | 0hPa | 0V | 00:00:00 | 00:00:00 | 00:00:00 | |
| RDZ2B | 2026-09-04 23:42:57 | 41.88832 | 8.90276 | 89° | 37km/h | 8793m | 3.8m/s | 0°C | 0% | 0hPa | 0V | 00:00:00 | 00:00:00 | 00:00:00 | |
| RDZBGO | 2026-09-04 23:42:48 | 41.88855 | 8.90175 | 106° | 22km/h | 8748m | 4.4m/s | 0°C | 0% | 0hPa | 0V | 00:00:00 | 00:00:00 | 00:00:00 | |
| RDZ2B | 2026-09-04 23:42:29 | 41.88885 | 8.89982 | 113° | 35km/h | 8645m | 5.3m/s | 0°C | 0% | 0hPa | 0V | 00:00:00 | 00:00:00 | 00:00:00 | |
| RDZBGO | 2026-09-04 23:42:27 | 41.88892 | 8.89964 | 125° | 26km/h | 8632m | 5.8m/s | 0°C | 0% | 0hPa | 0V | 00:00:00 | 00:00:00 | 00:00:00 | |
| RDZ2B | 2026-09-04 23:42:09 | 41.88944 | 8.89800 | 117° | 29km/h | 8551m | 3.4m/s | 0°C | 0% | 0hPa | 0V | 00:00:00 | 00:00:00 | 00:00:00 | |
| RDZBGO | 2026-09-04 23:42:06 | 41.88955 | 8.89771 | 108° | 33km/h | 8539m | 3.3m/s | 0°C | 0% | 0hPa | 0V | 00:00:00 | 00:00:00 | 00:00:00 | |
| RDZBGO | 2026-09-04 23:41:46 | 41.89013 | 8.89563 | 107° | 33km/h | 8444m | 8.7m/s | 0°C | 0% | 0hPa | 0V | 00:00:00 | 00:00:00 | 00:00:00 | |
| RDZ2B | 2026-09-04 23:41:45 | 41.89015 | 8.89552 | 99° | 31km/h | 8438m | 2.5m/s | 0°C | 0% | 0hPa | 0V | 00:00:00 | 00:00:00 | 00:00:00 | |
| RDZBGO | 2026-09-04 23:41:25 | 41.89097 | 8.89343 | 125° | 42km/h | 8324m | 4.3m/s | 0°C | 0% | 0hPa | 0V | 00:00:00 | 00:00:00 | 00:00:00 | |
| RDZ2B | 2026-09-04 23:41:19 | 41.89122 | 8.89289 | 120° | 40km/h | 8294m | 2.3m/s | 0°C | 0% | 0hPa | 0V | 00:00:00 | 00:00:00 | 00:00:00 | |
| RDZBGO | 2026-09-04 23:41:03 | 41.89208 | 8.89129 | 126° | 51km/h | 8206m | 3.6m/s | 0°C | 0% | 0hPa | 0V | 00:00:00 | 00:00:00 | 00:00:00 | |
| RDZ2B | 2026-09-04 23:40:59 | 41.89227 | 8.89077 | 118° | 37km/h | 8185m | 3.6m/s | 0°C | 0% | 0hPa | 0V | 00:00:00 | 00:00:00 | 00:00:00 | |
| RDZBGO | 2026-09-04 23:40:42 | 41.89320 | 8.88900 | 116° | 37km/h | 8105m | 7.8m/s | 0°C | 0% | 0hPa | 0V | 00:00:00 | 00:00:00 | 00:00:00 | |
| RDZ2B | 2026-09-04 23:40:38 | 41.89331 | 8.88858 | 110° | 26km/h | 8079m | 5.1m/s | 0°C | 0% | 0hPa | 0V | 00:00:00 | 00:00:00 | 00:00:00 | |
| RDZBGO | 2026-09-04 23:40:21 | 41.89418 | 8.88719 | 127° | 38km/h | 7987m | 5.7m/s | 0°C | 0% | 0hPa | 0V | 00:00:00 | 00:00:00 | 00:00:00 | |
| RDZ2B | 2026-09-04 23:40:17 | 41.89446 | 8.88680 | 129° | 38km/h | 7966m | 3.2m/s | 0°C | 0% | 0hPa | 0V | 00:00:00 | 00:00:00 | 00:00:00 | |
| RDZBGO | 2026-09-04 23:39:52 | 41.89561 | 8.88498 | 135° | 22km/h | 7828m | 6.0m/s | 0°C | 0% | 0hPa | 0V | 00:00:00 | 00:00:00 | 00:00:00 | |
| RDZ2B | 2026-09-04 23:39:51 | 41.89565 | 8.88492 | 142° | 22km/h | 7824m | 4.1m/s | 0°C | 0% | 0hPa | 0V | 00:00:00 | 00:00:00 | 00:00:00 | |
| RDZ2B | 2026-09-04 23:39:30 | 41.89663 | 8.88331 | 133° | 24km/h | 7711m | 6.9m/s | 0°C | 0% | 0hPa | 0V | 00:00:00 | 00:00:00 | 00:00:00 | |
| RDZBGO | 2026-09-04 23:39:29 | 41.89668 | 8.88323 | 139° | 27km/h | 7705m | 3.0m/s | 0°C | 0% | 0hPa | 0V | 00:00:00 | 00:00:00 | 00:00:00 | |
| RDZ2B | 2026-09-04 23:39:10 | 41.89742 | 8.88174 | 122° | 40km/h | 7610m | 7.6m/s | 0°C | 0% | 0hPa | 0V | 00:00:00 | 00:00:00 | 00:00:00 | |
| RDZBGO | 2026-09-04 23:39:05 | 41.89766 | 8.88110 | 96° | 35km/h | 7582m | 6.8m/s | 0°C | 0% | 0hPa | 0V | 00:00:00 | 00:00:00 | 00:00:00 | |
| RDZ2B | 2026-09-04 23:38:48 | 41.89848 | 8.87916 | 100° | 27km/h | 7490m | 4.1m/s | 0°C | 0% | 0hPa | 0V | 00:00:00 | 00:00:00 | 00:00:00 | |
| RDZBGO | 2026-09-04 23:38:44 | 41.89864 | 8.87870 | 130° | 47km/h | 7472m | 4.0m/s | 0°C | 0% | 0hPa | 0V | 00:00:00 | 00:00:00 | 00:00:00 | |
| RDZ2B | 2026-09-04 23:38:25 | 41.89963 | 8.87652 | 107° | 47km/h | 7373m | 3.9m/s | 0°C | 0% | 0hPa | 0V | 00:00:00 | 00:00:00 | 00:00:00 | |
| RDZBGO | 2026-09-04 23:38:24 | 41.89967 | 8.87638 | 110° | 42km/h | 7367m | 7.6m/s | 0°C | 0% | 0hPa | 0V | 00:00:00 | 00:00:00 | 00:00:00 | |
| RDZ2B | 2026-09-04 23:38:04 | 41.90075 | 8.87432 | 114° | 37km/h | 7253m | 5.5m/s | 0°C | 0% | 0hPa | 0V | 00:00:00 | 00:00:00 | 00:00:00 | |
| RDZBGO | 2026-09-04 23:38:03 | 41.90079 | 8.87420 | 116° | 40km/h | 7246m | 4.7m/s | 0°C | 0% | 0hPa | 0V | 00:00:00 | 00:00:00 | 00:00:00 | |
| RDZBGO | 2026-09-04 23:37:43 | 41.90174 | 8.87228 | 117° | 35km/h | 7145m | 4.1m/s | 0°C | 0% | 0hPa | 0V | 00:00:00 | 00:00:00 | 00:00:00 | |
| RDZ2B | 2026-09-04 23:37:41 | 41.90182 | 8.87203 | 112° | 42km/h | 7135m | 2.5m/s | 0°C | 0% | 0hPa | 0V | 00:00:00 | 00:00:00 | 00:00:00 | |
| RDZBGO | 2026-09-04 23:37:22 | 41.90279 | 8.87017 | 127° | 38km/h | 7025m | 4.0m/s | 0°C | 0% | 0hPa | 0V | 00:00:00 | 00:00:00 | 00:00:00 | |
| RDZ2B | 2026-09-04 23:37:20 | 41.90290 | 8.86998 | 118° | 29km/h | 7014m | 4.8m/s | 0°C | 0% | 0hPa | 0V | 00:00:00 | 00:00:00 | 00:00:00 | |
| RDZBGO | 2026-09-04 23:37:02 | 41.90351 | 8.86806 | 94° | 35km/h | 6912m | 4.7m/s | 0°C | 0% | 0hPa | 0V | 00:00:00 | 00:00:00 | 00:00:00 | |
| RDZ2B | 2026-09-04 23:36:59 | 41.90362 | 8.86778 | 132° | 37km/h | 6899m | 4.8m/s | 0°C | 0% | 0hPa | 0V | 00:00:00 | 00:00:00 | 00:00:00 | |
| RDZBGO | 2026-09-04 23:36:41 | 41.90424 | 8.86523 | 111° | 42km/h | 6802m | 3.6m/s | 0°C | 0% | 0hPa | 0V | 00:00:00 | 00:00:00 | 00:00:00 | |
| RDZ2B | 2026-09-04 23:36:24 | 41.90501 | 8.86349 | 106° | 49km/h | 6703m | 7.1m/s | 0°C | 0% | 0hPa | 0V | 00:00:00 | 00:00:00 | 00:00:00 | |
| RDZBGO | 2026-09-04 23:36:21 | 41.90516 | 8.86308 | 133° | 40km/h | 6685m | 5.3m/s | 0°C | 0% | 0hPa | 0V | 00:00:00 | 00:00:00 | 00:00:00 | |
| RDZ2B | 2026-09-04 23:36:02 | 41.90614 | 8.86105 | 129° | 40km/h | 6576m | 4.9m/s | 0°C | 0% | 0hPa | 0V | 00:00:00 | 00:00:00 | 00:00:00 | |
| RDZBGO | 2026-09-04 23:36:00 | 41.90625 | 8.86084 | 121° | 40km/h | 6564m | 5.5m/s | 0°C | 0% | 0hPa | 0V | 00:00:00 | 00:00:00 | 00:00:00 | |
| RDZ2B | 2026-09-04 23:35:40 | 41.90739 | 8.85869 | 129° | 38km/h | 6448m | 6.5m/s | 0°C | 0% | 0hPa | 0V | 00:00:00 | 00:00:00 | 00:00:00 | |
| RDZBGO | 2026-09-04 23:35:19 | 41.90851 | 8.85625 | 97° | 40km/h | 6333m | 4.8m/s | 0°C | 0% | 0hPa | 0V | 00:00:00 | 00:00:00 | 00:00:00 |